Date,TemperatureHighF,TemperatureAvgF,TemperatureLowF,DewpointHighF,DewpointAvgF,DewpointLowF,HumidityHigh,HumidityAvg,HumidityLow,PressureMaxIn,PressureMinIn,WindSpeedMaxMPH,WindSpeedAvgMPH,GustSpeedMaxMPH,PrecipitationSumIn
2013-3-1,36.0,32.9,29.8,31.4,26.5,23.8,88,77,65,29.79,29.63,14,2,14,0.06
2013-3-2,34.7,30.7,26.4,26.0,23.4,20.4,80,74,63,29.78,29.73,13,2,13,0.02
2013-3-3,34.2,28.7,24.1,25.3,22.0,18.9,82,76,68,29.75,29.67,13,3,13,0.00
2013-3-4,31.6,27.8,24.6,22.6,20.2,17.8,78,73,64,29.87,29.69,16,3,16,0.00
2013-3-5,40.8,31.9,25.2,28.8,23.4,18.0,84,71,56,30.16,29.86,13,2,13,0.14
2013-3-6,34.7,31.8,28.9,29.4,26.8,23.3,90,82,69,30.25,30.14,16,1,16,0.04
2013-3-7,32.7,29.7,27.7,28.2,24.9,21.7,90,82,71,30.23,30.14,10,1,10,0.00
2013-3-8,37.6,31.8,27.1,26.4,24.2,20.6,90,74,57,30.30,30.08,11,2,11,0.09
2013-3-9,53.4,38.5,28.9,24.1,20.0,14.7,77,51,23,30.43,30.27,10,2,10,0.18
2013-3-10,50.2,36.1,27.1,28.9,25.1,20.9,81,66,41,30.46,30.34,10,0,10,0.00
2013-3-11,48.6,39.1,30.9,34.6,29.0,25.8,86,69,45,30.36,30.19,14,1,14,0.00
2013-3-12,46.9,41.8,36.5,44.6,38.9,33.6,92,89,80,30.20,29.80,12,0,12,0.59
2013-3-13,43.5,37.2,31.1,37.8,27.6,19.1,92,70,45,29.89,29.82,13,1,13,0.00
2013-3-14,31.6,26.1,16.5,22.0,14.7,5.9,72,62,50,29.90,29.77,19,3,19,0.00
2013-3-15,35.4,23.9,13.8,25.9,12.8,2.5,85,63,38,29.92,29.68,20,2,20,0.00
2013-3-16,32.7,26.1,19.9,19.2,12.4,9.2,71,57,40,29.96,29.77,13,1,13,0.00
2013-3-17,30.7,23.1,16.3,13.1,7.9,0.0,72,53,37,30.37,29.95,19,2,19,0.00
2013-3-18,35.2,23.2,10.6,18.6,4.3,-1.4,71,45,29,30.48,30.27,8,0,8,0.00
2013-3-19,30.4,26.5,21.9,27.0,23.1,18.8,89,87,72,30.28,29.80,6,0,6,0.00
2013-3-20,35.4,26.8,22.1,21.7,18.5,14.6,88,72,54,29.85,29.74,25,2,25,0.08
2013-3-21,37.6,27.7,18.1,16.9,13.7,10.6,80,57,38,29.86,29.67,10,0,10,0.13
2013-3-22,36.3,28.4,20.1,22.4,16.9,13.1,76,63,45,29.81,29.70,14,1,14,0.02
2013-3-23,39.9,30.0,23.9,21.0,18.4,15.8,76,62,44,29.86,29.73,20,2,20,0.00
2013-3-24,41.0,33.4,28.6,23.6,21.3,19.7,70,61,48,29.92,29.84,17,2,17,0.08
2013-3-25,39.6,32.8,25.5,27.4,23.2,18.6,77,68,57,29.88,29.65,10,0,10,0.02
2013-3-26,44.4,36.4,30.0,27.9,23.1,19.3,87,61,38,29.89,29.68,11,1,11,0.02
2013-3-27,47.5,38.3,31.3,29.7,23.6,19.4,83,56,41,29.99,29.86,14,2,14,0.00
2013-3-28,45.5,38.7,32.9,31.9,29.3,27.8,86,70,51,30.12,29.98,8,1,11,0.00
2013-3-29,48.4,41.2,37.0,32.3,30.2,28.5,72,65,51,30.15,30.08,15,1,15,0.00
2013-3-30,51.3,40.6,32.7,28.9,22.2,14.6,76,51,28,30.19,30.11,11,1,11,0.00
2013-3-31,53.2,40.7,29.3,34.5,22.5,14.2,89,51,32,30.20,29.86,19,1,19,0.12